Regional Weather Roundup
Issued by NWS

Home | Current Version | Previous Version | Text Only | Print | Product List | Glossary On
Versions: 1 2 3 4 5 6 7 8 9 10 11 12 13 14 15 16 17 18 19 20 21 22 23 24 25 26 27 28 29 30 31 32 33 34 35 36 37 38 39 40 41 42 43 44 45 46 47 48 49 50
000
ASUS42 KFFC 261103
RWRGA
WEATHER ROUNDUP FOR GEORGIA
NATIONAL WEATHER SERVICE PEACHTREE CITY GA
700 AM EDT SUN APR 26 2015

NOTE: "FAIR" INDICATES FEW OR NO CLOUDS BELOW 12,000 FEET WITH NO
SIGNIFICANT WEATHER AND/OR OBSTRUCTIONS TO VISIBILITY.

* = USE WITH CAUTION. THE STATIONS MARKED WITH AN ASTERISK MAY NOT
REPORT WEATHER SUCH AS PRECIPITATION, FOG, OR THUNDER AND ARE NOT
QUALITY CONTROLLED BY NWS.

THE REMARK "TC" DENOTES TEMPERATURE READING IN DEGREES CELSIUS.

GAZ001>058-261200-
NORTH GEORGIA

CITY           SKY/WX    TMP DP  RH WIND       PRES   REMARKS
ATLANTA        CLOUDY    64  61  90 W10       29.68R
ATHENS         PTCLDY    63  62  97 SW6       29.64R FOG
CHAMBLEE       MOCLDY    64  63  96 SW10      29.67R
PEACHTREE CITY CLOUDY    64  62  93 W5        29.69R
ROME           MOCLDY    65  64  97 SW5       29.65R
WEST ATLANTA   CLOUDY    64  61  90 SW7       29.67R
GAINESVILLE    PTCLDY    63  61  93 W9        29.66R FOG
CARTERSVILLE   CLOUDY    66  62  87 CALM      29.66R


CITY           SKY/WX    TMP DP  RH WIND       PRES   REMARKS
DALTON*        CLEAR     59  59 100 CALM      29.66R
LAWRENCEVILLE* MOCLDY    66  59  77 W10       29.65
MARIETTA       MOCLDY    64  64 100 W7        29.67R
KENNESAW*      MOCLDY    64  63  94 W8G15     29.67  FOG
BLAIRSVILLE*     N/A     59  50  71 W5        29.67R
$$

GAZ059>098-102>109-261200-
CENTRAL GEORGIA

CITY           SKY/WX    TMP DP  RH WIND       PRES   REMARKS
AUGUSTA-BUSH   PTCLDY    65  63  93 SW12      29.63R
AUGUSTA-DANIEL PTCLDY    66  62  87 W9        29.64R
COLUMBUS       CLOUDY    64  62  93 W3        29.71R
MACON          CLOUDY    65  63  93 W6        29.69R
ROBINS AFB     MOCLDY    65  63  91 W6        29.69R


CITY           SKY/WX    TMP DP  RH WIND       PRES   REMARKS
LAGRANGE*      CLOUDY    67  66  96 W3        29.71R
SYLVANIA*      CLEAR     64  64  99 W5        29.68R
MILLEDGEVILLE*   N/A     61  61 100 CALM      29.68R FOG
$$

GAZ099>101-110>166-261200-
SOUTH GEORGIA

CITY           SKY/WX    TMP DP  RH WIND       PRES   REMARKS
SAVANNAH       PTCLDY    65  63  93 W8        29.68R
VALDOSTA       CLEAR     68  67  96 CALM      29.74R
ALMA           CLEAR     66  64  93 W5        29.72R
ST SIMONS      CLEAR     70  68  93 SW9       29.70R
FT STEWART     CLEAR     66  64  93 W8        29.67R
ALBANY         CLEAR     65  63  93 SW6       29.75R
HUNTER AFB     CLEAR     66  66 100 W9        29.66R
MOODY AFB      CLEAR     68  66  92 W7        29.72R
BRUNSWICK      CLEAR     70  66  88 W9        29.71R


CITY           SKY/WX    TMP DP  RH WIND       PRES   REMARKS
BAINBRIDGE*    CLEAR     68  68 100 SW5       29.74R
MOULTRIE*      CLEAR     66 N/A N/A W3        29.74R
VIDALIA*       CLEAR     64  63  94 W6        29.70R
WAYCROSS*      CLEAR     71  69  96 W5        29.72R
DOUGLAS*       CLEAR     68  64  88 W6        29.73R
$$


USA.gov is the U.S. government's official web portal to all federal, state and local government web resources and services.